[[{"header":{"parameterUnit":"m.s-1","parameterCategory":1,"la1":30.2991,"la2":30.254,"lo1":-89.0895,"lo2":-89.0444,"dy":0.0017,"dx":0.0017,"nx":28,"ny":28,"refTime":"2025-06-08T21:00:00:Z","depth":0,"parameterNumber":2,"parameterNumberName":"U-component_of_WINDS"},"data":[0,0,0,0,0,0,0,0,0,0,0,0,0,0,0,0,0,0,0,0,0,0,0,0,0,0,0,0,0,0,0,0,0,0,0,0,0,0,0,0,0,0,0,0,0,0,0,0,0,0,0,0,0,0,0,0,0,0,4.6282,4.6283,0,4.6387,4.6388,4.6389,4.634,4.6337,4.6334,4.6332,4.6437,4.6443,4.6448,0,0,0,0,0,0,0,0,0,0,0,0,0,4.6035,4.604,4.6282,4.6284,4.6285,4.6387,4.6388,4.639,4.634,4.6337,4.6334,4.633,4.6436,4.6442,4.6448,0,0,0,0,0,0,0,0,0,0,0,0,0,4.6142,4.6042,4.6282,4.6272,4.6273,4.6386,4.6388,4.639,4.6341,4.6337,4.6333,4.6329,4.6434,4.6441,4.6449,4.6578,0,0,4.6473,4.6477,0,0,0,0,0,0,0,0,4.6136,4.6151,4.6273,4.6273,4.6274,4.6346,4.634,4.6453,4.6342,4.6315,4.6332,4.6327,4.641,4.642,4.6448,4.6583,4.6587,4.6474,4.6479,4.6482,4.6485,0,0,0,0,0,0,0,4.6128,4.6146,4.6324,4.6274,4.6275,4.6261,4.6272,4.6361,4.6384,4.6317,4.6313,4.6327,4.641,4.6441,4.645,4.6589,4.6474,4.6481,4.6486,4.6489,4.6829,4.6833,0,0,0,0,0,0,4.6122,4.614,4.632,4.6327,4.6194,4.6269,4.6281,4.6327,4.6382,4.6387,4.633,4.6324,4.6429,4.6441,4.6454,4.6604,4.6482,4.649,4.6494,4.6825,4.683,4.6835,0,0,0,0,0,0,4.6117,4.6138,4.6316,4.6233,4.6254,4.6278,4.6329,4.6331,4.6362,4.6392,4.6396,4.6358,4.6426,4.6443,4.6546,4.6607,4.6493,4.65,4.682,4.6826,4.6832,4.6908,0,0,0,0,0,0,4.611,4.6137,4.6187,4.6234,4.6259,4.6408,4.6333,4.6336,4.6376,4.6369,4.6419,4.6424,4.6424,4.6535,4.6554,4.6616,4.6507,4.6814,4.6823,4.683,4.69,4.6916,4.693,0,0,0,0,0,4.6101,4.6205,4.619,4.6212,4.6322,4.6412,4.6426,4.6425,4.6381,4.643,4.6449,4.6422,4.6598,4.6546,4.6567,4.6632,4.681,4.682,4.683,4.6893,4.6913,4.693,0,0,0,0,0,0,4.6165,4.6211,4.6195,4.6318,4.6361,4.6403,4.6466,4.6447,4.6504,4.6495,4.6491,4.6503,4.6609,4.6632,4.6573,4.6757,4.6697,4.6712,4.6738,4.6757,4.6772,4.6763,4.6513,0,0,0,0,0,4.6193,4.6263,4.63,4.6404,4.6427,4.6443,4.6482,4.6477,4.6522,4.654,4.6567,4.6611,4.6675,4.6718,4.678,4.6904,4.6912,4.6959,4.6974,4.6986,4.6997,4.706,4.708,4.6866,4.6866,4.6866,0,0,4.6253,4.6287,4.6331,4.6418,4.6451,4.6521,4.6459,4.6537,4.6588,4.6552,4.665,4.6672,4.672,4.6833,4.6884,4.6855,4.7058,4.6998,4.7008,4.7013,4.7072,4.7092,4.711,4.6873,4.6872,4.687,0,0,4.6395,4.643,4.6518,4.6553,4.6603,4.6613,4.6634,4.6679,4.6691,4.679,4.6763,4.6824,4.6937,4.697,4.7003,4.7155,4.713,4.7176,4.7252,4.7313,4.733,4.7345,4.7395,4.7413,4.7188,4.7188,4.7188,0,4.6462,4.6568,4.6566,4.6645,4.6682,4.6653,4.674,4.6774,4.6842,4.6867,4.6834,4.6972,4.7003,4.7121,4.7158,4.7187,4.7208,4.7168,4.7328,4.7343,4.7356,4.7404,4.7423,4.7193,4.7192,4.7192,4.7191,0,4.6645,4.6719,4.6784,4.6849,4.6894,4.6978,4.6986,4.7032,4.7023,4.7035,4.7134,4.717,4.7236,4.7264,4.7257,4.7381,4.736,4.7328,4.7267,4.7382,4.7426,4.7444,4.72,4.7198,4.7196,4.7195,0,0,4.6831,4.6893,4.6916,4.6943,4.6996,4.7052,4.7133,4.7197,4.7234,4.7282,4.7347,4.7441,4.741,4.7447,4.7443,4.7497,4.761,4.7457,4.7458,4.7481,4.7742,4.7763,4.7785,4.7595,4.7598,4.7601,4.7737,0,4.6974,4.7115,4.7114,4.7244,4.7309,4.7281,4.735,4.7389,4.7402,4.7458,4.7473,4.7538,4.7495,4.7516,4.7568,4.7585,4.7661,4.7576,4.7652,4.7654,4.7636,4.7809,4.7832,4.7959,4.7755,4.7758,4.776,0,4.716,4.7212,4.7348,4.7387,4.7414,4.7477,4.7533,4.7589,4.7631,4.7636,4.7676,4.7663,4.7741,4.768,4.7787,4.7728,4.7759,4.7772,4.7777,4.7781,4.7711,4.7813,4.7999,4.8017,4.7788,4.7786,4.7784,0,4.7275,4.738,4.7473,4.7499,4.7548,4.7592,4.7614,4.7653,4.769,4.774,4.7763,4.7822,4.7853,4.7897,4.7899,4.7855,4.8005,4.7945,4.8008,4.8008,4.8039,4.8036,4.8228,4.8066,4.8066,4.8065,4.8065,0,4.7433,4.7516,4.7525,4.7583,4.7673,4.7672,4.7761,4.778,4.7813,4.7871,4.7852,4.7907,4.7908,4.7963,4.7966,4.805,4.8066,4.807,4.8069,4.807,4.8069,4.8087,4.8077,4.807,4.8069,4.8068,4.8067,0,4.7576,4.7587,4.7686,4.7724,4.7736,4.78,4.7832,4.7885,4.7896,4.797,4.7987,4.8004,4.8067,4.8074,4.815,4.8151,4.8252,4.8244,4.8237,4.8234,4.8296,4.8288,4.8504,4.853,4.8354,4.8356,4.8358,0,4.7674,4.7737,4.7781,4.7819,4.7843,4.7905,4.7942,4.7942,4.7982,4.8032,4.8078,4.814,4.8189,4.8292,4.831,4.8366,4.8356,4.8427,4.8364,4.8361,4.8351,4.8346,4.835,4.8438,4.844,4.8442,4.8443,0,4.7845,4.7846,4.7902,4.7958,4.8003,4.8047,4.8088,4.812,4.8125,4.817,4.8234,4.8272,4.8347,4.8407,4.8462,4.8483,4.8463,4.8463,4.848,4.848,4.8471,4.8472,4.8266,4.8458,4.8456,4.8455,4.8454,4.8454,4.7966,4.8018,4.8057,4.8118,4.8148,4.8187,4.8237,4.8254,4.8308,4.8368,4.8365,4.8435,4.8472,4.8543,4.8568,4.8622,4.8598,4.8623,4.8629,4.8634,4.8638,4.8466,4.8632,4.8632,4.8631,4.8631,4.8631,0,4.8131,4.8154,4.8211,4.8268,4.8315,4.8293,4.8337,4.8377,4.8439,4.8476,4.8524,4.8596,4.8653,4.8675,4.8731,4.8769,4.876,4.8783,4.8778,4.8782,4.8659,4.8637,4.8788,4.8788,4.8788,4.8788,4.8788,4.8788,4.8223,4.8309,4.8315,4.8415,4.8437,4.8506,4.8532,4.8566,4.8594,4.8676,4.8723,4.8737,4.8767,4.8823,4.8874,4.8879,4.8898,4.8924,4.8924,4.8808,4.8792,4.8776,4.8755,4.8929,4.8929,4.9042,4.9043,4.9044]},{"header":{"parameterUnit":"m.s-1","parameterCategory":1,"la1":30.2991,"la2":30.254,"lo1":-89.0895,"lo2":-89.0444,"dy":0.0017,"dx":0.0017,"nx":28,"ny":28,"refTime":"2025-06-08T21:00:00:Z","depth":0,"parameterNumber":3,"parameterNumberName":"V-component_of_WINDS"},"data":[0,0,0,0,0,0,0,0,0,0,0,0,0,0,0,0,0,0,0,0,0,0,0,0,0,0,0,0,0,0,0,0,0,0,0,0,0,0,0,0,0,0,0,0,0,0,0,0,0,0,0,0,0,0,0,0,0,0,4.6324,4.6326,0,4.6481,4.6483,4.6484,4.646,4.6457,4.6454,4.6452,4.6608,4.6614,4.6621,0,0,0,0,0,0,0,0,0,0,0,0,0,4.5998,4.6004,4.6324,4.6326,4.6328,4.648,4.6483,4.6485,4.646,4.6457,4.6454,4.6451,4.6605,4.6613,4.6621,0,0,0,0,0,0,0,0,0,0,0,0,0,4.6145,4.6006,4.6324,4.6334,4.6337,4.648,4.6483,4.6485,4.6461,4.6457,4.6453,4.6449,4.6603,4.6612,4.6622,4.6764,0,0,4.6653,4.6657,0,0,0,0,0,0,0,0,4.6137,4.6157,4.6331,4.6334,4.6337,4.6447,4.6425,4.6578,4.6462,4.6414,4.6452,4.6447,4.6557,4.657,4.6608,4.6771,4.6778,4.6654,4.666,4.6664,4.6667,0,0,0,0,0,0,0,4.6127,4.615,4.6386,4.6333,4.6337,4.6329,4.6346,4.6454,4.6506,4.6417,4.6416,4.6435,4.6558,4.6599,4.6612,4.678,4.6653,4.6662,4.6668,4.6672,4.7063,4.7067,0,0,0,0,0,0,4.6114,4.6142,4.6381,4.6391,4.6225,4.6338,4.6357,4.6415,4.6504,4.6514,4.6438,4.6433,4.6584,4.66,4.6617,4.6787,4.6664,4.6673,4.6679,4.7058,4.7064,4.7068,0,0,0,0,0,0,4.6108,4.6136,4.6375,4.6266,4.6296,4.6348,4.6414,4.6421,4.6462,4.652,4.6529,4.6471,4.6581,4.6603,4.6727,4.6792,4.6678,4.6687,4.7053,4.706,4.7066,4.7128,0,0,0,0,0,0,4.6098,4.6134,4.619,4.6268,4.6302,4.6484,4.6418,4.6427,4.6479,4.6474,4.6553,4.6563,4.658,4.6712,4.6737,4.6804,4.6694,4.7047,4.7056,4.7064,4.7121,4.7136,4.715,0,0,0,0,0,4.6087,4.6201,4.6193,4.6222,4.6373,4.6488,4.6507,4.6526,4.6485,4.654,4.6577,4.656,4.6781,4.6725,4.6753,4.6823,4.7043,4.7054,4.7063,4.7114,4.7133,4.7149,0,0,0,0,0,0,4.6129,4.6211,4.6203,4.6347,4.6411,4.6484,4.6555,4.6546,4.6622,4.6614,4.6633,4.6651,4.6776,4.6812,4.6748,4.6963,4.6906,4.6922,4.6935,4.6954,4.6968,4.6957,4.6703,0,0,0,0,0,4.6155,4.6243,4.6309,4.6429,4.6462,4.6503,4.6553,4.6562,4.6628,4.6655,4.6701,4.6765,4.6848,4.6903,4.6983,4.7125,4.7141,4.7187,4.7201,4.7213,4.7227,4.7302,4.7322,4.7101,4.7101,4.7101,0,0,4.6209,4.6265,4.632,4.6439,4.649,4.6578,4.6526,4.6622,4.6687,4.6669,4.6789,4.6825,4.6897,4.703,4.7091,4.7064,4.7291,4.7226,4.7234,4.7242,4.7314,4.7335,4.7353,4.7108,4.7106,4.7105,0,0,4.6353,4.6406,4.651,4.6562,4.6639,4.6665,4.669,4.6764,4.6787,4.6908,4.6895,4.6972,4.7116,4.7167,4.7212,4.7372,4.7358,4.7397,4.7473,4.7546,4.7563,4.7579,4.7634,4.7654,4.7411,4.7411,4.7411,0,4.6411,4.6546,4.6564,4.6662,4.6713,4.6702,4.6806,4.6854,4.6953,4.6988,4.6957,4.7135,4.7183,4.7327,4.7365,4.7403,4.743,4.7389,4.756,4.7575,4.759,4.7643,4.7664,4.7415,4.7414,4.7414,4.7414,0,4.6612,4.6705,4.678,4.6876,4.6936,4.7037,4.7068,4.7126,4.7128,4.7157,4.7278,4.7334,4.7424,4.7459,4.7463,4.7602,4.7583,4.7555,4.7498,4.7615,4.7665,4.7686,4.7421,4.7419,4.7418,4.7417,0,0,4.6789,4.6893,4.692,4.6962,4.7045,4.7117,4.7215,4.7304,4.7352,4.742,4.7501,4.7622,4.7596,4.7647,4.7656,4.772,4.7841,4.7684,4.7686,4.771,4.7996,4.8015,4.8039,4.7832,4.7836,4.7839,4.7989,0,4.694,4.7116,4.7134,4.729,4.7375,4.7363,4.7448,4.7507,4.7535,4.7609,4.764,4.7724,4.7685,4.7715,4.7778,4.7813,4.7898,4.7802,4.7905,4.7909,4.7888,4.8066,4.8088,4.8227,4.8009,4.8012,4.8015,0,4.7141,4.7215,4.738,4.7449,4.7485,4.7562,4.7643,4.7715,4.778,4.7796,4.7851,4.7851,4.7949,4.7888,4.8022,4.7956,4.7999,4.8022,4.8028,4.8038,4.7969,4.808,4.8272,4.8293,4.8046,4.8044,4.8041,0,4.7252,4.7393,4.7509,4.7546,4.7629,4.7683,4.772,4.7781,4.7832,4.7903,4.7936,4.8016,4.806,4.8122,4.8141,4.8096,4.8274,4.8215,4.8288,4.8288,4.8327,4.8324,4.8528,4.8355,4.8355,4.8355,4.8354,0,4.7419,4.752,4.756,4.7631,4.7742,4.776,4.787,4.7903,4.7957,4.8033,4.8027,4.8098,4.8121,4.8194,4.821,4.8318,4.8338,4.8352,4.8355,4.8353,4.8351,4.8381,4.8371,4.836,4.8359,4.8358,4.8357,0,4.7563,4.7593,4.7719,4.7787,4.7806,4.7885,4.7943,4.801,4.8036,4.8132,4.8155,4.8196,4.8283,4.8309,4.8413,4.8423,4.8549,4.8543,4.8527,4.8527,4.8599,4.8591,4.8829,4.886,4.8667,4.8669,4.8671,0,4.7667,4.7744,4.7821,4.7872,4.7911,4.7993,4.8045,4.8065,4.8119,4.8197,4.8254,4.834,4.841,4.8548,4.8586,4.8664,4.866,4.8738,4.8672,4.8666,4.866,4.8655,4.8662,4.875,4.8752,4.8754,4.8755,0,4.7849,4.786,4.7936,4.8018,4.808,4.8145,4.8207,4.8248,4.8276,4.8337,4.8426,4.848,4.8585,4.867,4.8749,4.8784,4.8774,4.8775,4.8796,4.8795,4.8782,4.8789,4.856,4.877,4.8769,4.8768,4.8767,4.8766,4.7976,4.8043,4.8106,4.8191,4.8239,4.8297,4.8363,4.8397,4.8472,4.8561,4.8567,4.8662,4.8722,4.8827,4.8867,4.894,4.8917,4.8948,4.8955,4.8963,4.8968,4.877,4.8955,4.8954,4.8954,4.8953,4.8953,0,4.8156,4.8196,4.8273,4.836,4.8426,4.8411,4.8478,4.8534,4.8618,4.8676,4.8744,4.8844,4.8925,4.8968,4.9048,4.9099,4.9096,4.9119,4.9115,4.9123,4.8984,4.8958,4.912,4.912,4.912,4.912,4.912,4.912,4.8258,4.837,4.8388,4.8523,4.8561,4.8656,4.8695,4.8747,4.8793,4.8906,4.8973,4.9001,4.9052,4.9135,4.9208,4.9218,4.9247,4.9273,4.928,4.915,4.9133,4.9117,4.9092,4.9279,4.928,4.9413,4.9414,4.9415]}]]